TIANHE

Last updated on Thu Aug 04 2022 00:02:10 GMT+0000 (Coordinated Universal Time)

1 48274U 21035A 22215.68304434 .00005065 00000+0 61348-4 0 9991 2 48274 41.4732 289.6868 0006679 337.5157 160.7381 15.61486809 72197

Satellite not in orbit